Flight Track Log - Related Links

Times and Time Zones

All times are in EDT time to prevent confusion due to time zone crossing. See the AAL1862 flight status page for this flight to view local times or setup timezone preferences in your user account.

Time Position Orientation Groundspeed Altitude Reporting Facility
EDT Latitude Longitude Course Direction KTS MPH feet Rate Location/Type
Mon 07:42:38 AM 32.8833 -97.0333 357° North 162 186 1,600  Level Dallas / Fort Worth TRACON
Mon 07:44:03 AM 32.8167 -97.0000 157° South 235 270 4,700 2,600 Climbing Dallas / Fort Worth TRACON
Mon 07:45:00 AM 32.8433 -96.8013 10° North  Level FlightAware Approximate
Mon 07:45:08 AM 32.7667 -96.9333 132° Southeast 270 311 8,100  Level Dallas / Fort Worth TRACON
Mon 07:46:00 AM 32.9593 -96.8000 North  Level FlightAware Approximate
Mon 07:47:00 AM 33.0753 -96.8006 357° North  Level FlightAware Approximate
Mon 07:47:17 AM 32.8550 -96.8125 49° Northeast 272 313 11,300  Level Fort Worth Center
Mon 07:48:17 AM 32.9675 -96.8092 North 333 383 14,200 2,550 Climbing Fort Worth Center
Mon 07:49:17 AM 33.0636 -96.8136 358° North 370 426 16,400 2,400 Climbing Fort Worth Center
Mon 07:50:17 AM 33.1869 -96.8178 358° North 397 457 19,000 2,250 Climbing Fort Worth Center
Mon 07:51:17 AM 33.2911 -96.8219 358° North 404 465 20,900 2,000 Climbing Fort Worth Center
Mon 07:52:17 AM 33.4206 -96.8236 359° North 417 480 23,000 1,750 Climbing Fort Worth Center
Mon 07:53:17 AM 33.5228 -96.7781 20° North 428 493 24,400 1,550 Climbing Fort Worth Center
Mon 07:54:17 AM 33.6267 -96.6925 34° Northeast 428 493 26,100 1,600 Climbing Fort Worth Center
Mon 07:55:17 AM 33.7325 -96.6042 35° Northeast 441 507 27,600 1,650 Climbing Fort Worth Center
Mon 07:56:17 AM 33.8383 -96.5158 35° Northeast 453 521 29,400 1,500 Climbing Fort Worth Center
Mon 07:57:17 AM 33.9419 -96.4269 35° Northeast 459 528 30,600 800 Climbing Fort Worth Center
Mon 07:58:17 AM 34.0478 -96.3381 35° Northeast 459 528 31,000 200 Climbing Fort Worth Center
Mon 07:59:17 AM 34.1575 -96.2364 37° Northeast 459 528 31,000  Level Fort Worth Center
Mon 08:00:17 AM 34.2631 -96.1469 35° Northeast 459 528 31,000  Level Fort Worth Center
Mon 08:01:17 AM 34.3664 -96.0550 36° Northeast 459 528 31,000  Level Fort Worth Center
Mon 08:02:17 AM 34.4717 -95.9650 35° Northeast 459 528 31,000  Level Fort Worth Center
Mon 08:03:17 AM 34.5769 -95.8725 36° Northeast 459 528 31,000  Level Fort Worth Center
Mon 08:04:17 AM 34.6822 -95.7797 36° Northeast 465 535 31,000  Level Fort Worth Center
Mon 08:05:17 AM 34.7894 -95.6842 36° Northeast 470 541 31,000  Level Fort Worth Center
Mon 08:07:31 AM 35.0272 -95.4794 35° Northeast 481 554 31,000  Level Memphis Center
Mon 08:08:31 AM 35.1206 -95.3961 36° Northeast 470 541 31,000  Level Memphis Center
Mon 08:09:31 AM 35.2264 -95.3033 36° Northeast 465 535 31,000  Level Memphis Center
Mon 08:10:31 AM 35.3303 -95.2103 36° Northeast 465 535 31,000  Level Memphis Center
Mon 08:11:31 AM 35.4358 -95.1172 36° Northeast 465 535 31,000  Level Memphis Center
Mon 08:12:31 AM 35.5394 -95.0236 36° Northeast 465 535 31,000  Level Memphis Center
Mon 08:13:31 AM 35.6453 -94.9272 36° Northeast 465 535 31,000  Level Memphis Center
Mon 08:14:31 AM 35.7467 -94.8331 37° Northeast 465 535 31,000  Level Memphis Center
Mon 08:15:31 AM 35.8503 -94.7389 36° Northeast 465 535 31,000  Level Memphis Center
Mon 08:16:31 AM 35.9558 -94.6419 37° Northeast 465 535 31,000  Level Memphis Center
Mon 08:17:31 AM 36.0611 -94.5472 36° Northeast 465 535 31,000  Level Memphis Center
Mon 08:18:02 AM 36.1264 -94.4872 37° Northeast 470 541 31,000  Level Kansas City Center
Mon 08:19:03 AM 36.2319 -94.3900 37° Northeast 473 544 31,000  Level Kansas City Center
Mon 08:20:05 AM 36.3375 -94.2928 37° Northeast 473 544 31,000  Level Kansas City Center
Mon 08:21:06 AM 36.4431 -94.1953 37° Northeast 474 545 31,000  Level Kansas City Center
Mon 08:22:08 AM 36.5481 -94.0975 37° Northeast 474 545 31,000  Level Kansas City Center
Mon 08:23:09 AM 36.6536 -94.0008 36° Northeast 471 542 31,000  Level Kansas City Center
Mon 08:24:11 AM 36.7589 -93.9022 37° Northeast 472 543 31,000  Level Kansas City Center
Mon 08:25:12 AM 36.8631 -93.8036 37° Northeast 472 543 31,000  Level Kansas City Center
Mon 08:26:14 AM 36.9764 -93.6956 37° Northeast 471 542 31,000  Level Kansas City Center
Mon 08:27:15 AM 37.0808 -93.5969 37° Northeast 471 542 31,000  Level Kansas City Center
Mon 08:28:17 AM 37.1850 -93.4981 37° Northeast 469 540 31,000  Level Kansas City Center
Mon 08:29:18 AM 37.2914 -93.4011 36° Northeast 470 541 31,000  Level Kansas City Center
Mon 08:30:20 AM 37.4125 -93.2747 40° Northeast 469 540 31,000  Level Kansas City Center
Mon 08:31:21 AM 37.4997 -93.1481 49° Northeast 476 548 31,000  Level Kansas City Center
Mon 08:32:23 AM 37.5822 -93.0175 51° Northeast 475 547 31,000  Level Kansas City Center
Mon 08:33:24 AM 37.6647 -92.8864 51° Northeast 475 547 31,000  Level Kansas City Center
Mon 08:34:25 AM 37.7456 -92.7539 52° Northeast 476 548 31,000  Level Kansas City Center
Mon 08:35:27 AM 37.8231 -92.6297 52° Northeast 476 548 31,000  Level Kansas City Center
Mon 08:36:28 AM 37.9047 -92.4986 52° Northeast 477 549 31,000  Level Kansas City Center
Mon 08:37:30 AM 37.9872 -92.3658 52° Northeast 479 551 31,000 -1,171 Level Kansas City Center
Mon 08:38:31 AM 38.0856 -92.2078 52° Northeast 478 550 28,600 -2,829 Descending Kansas City Center
Mon 08:39:33 AM 38.1678 -92.0733 52° Northeast 480 552 25,200 -2,903 Descending Kansas City Center
Mon 08:40:35 AM 38.2461 -91.9453 52° Northeast 477 549 22,600 -2,585 Descending Kansas City Center
Mon 08:41:36 AM 38.3225 -91.8203 52° Northeast 456 525 19,900 -2,146 Descending Kansas City Center
Mon 08:42:38 AM 38.3967 -91.6983 52° Northeast 439 505 18,200 -1,659 Descending Kansas City Center
Mon 08:43:39 AM 38.4636 -91.5861 53° Northeast 404 465 16,500 -2,000 Descending Kansas City Center
Mon 08:44:41 AM 38.5433 -91.4556 52° Northeast 389 448 14,100 -1,984 Descending Kansas City Center
Mon 08:45:43 AM 38.5969 -91.3675 52° Northeast 384 442 12,400 -1,463 Descending Kansas City Center
Mon 08:46:44 AM 38.6725 -91.2403 53° Northeast 375 432 11,100 -683 Descending Kansas City Center
Mon 08:47:46 AM 38.6939 -91.1161 78° East 367 422 11,000 -97 Descending Kansas City Center
Mon 08:48:48 AM 38.6956 -90.9831 89° East 372 428 10,900 -488 Descending Kansas City Center
Mon 08:49:49 AM 38.7386 -90.8814 61° Northeast 340 391 10,000 -1,463 Descending Kansas City Center
Mon 08:50:51 AM 38.7817 -90.7872 60° Northeast 318 366 7,900 -2,032 Descending Kansas City Center

Login

Don't have an account? Register now (free) for customized features, flight alerts, and more!